Location: Gull Harbor
(47.1000°N, 122.9000°W)
Time: 03:07:07
(UTC-07:00)

ISS - Visible Passes

Search period start: 21 July 2018 00:00
Search period end: 31 July 2018 00:00
Orbit: 402 x 408 km, 51.6° (Epoch: 21 July)

Date Brightness Start Highest point End Pass type
(mag) Time Alt. Az. Time Alt. Az. Time Alt. Az.
21 Jul -2.6 00:03:43 10° W 00:06:53 44° NNW 00:10:04 10° ENE visible
21 Jul -2.3 01:40:42 10° WNW 01:43:49 37° N 01:46:55 10° ENE visible
21 Jul -4.0 03:17:13 10° WNW 03:20:32 84° SSW 03:23:49 10° ESE visible
21 Jul -2.1 04:54:34 10° W 04:56:36 15° SW 04:58:38 10° S visible
21 Jul -3.0 21:35:21 10° SSW 21:38:17 31° SE 21:41:14 10° ENE visible
21 Jul -3.2 23:11:25 10° W 23:14:39 57° NNW 23:17:55 10° ENE visible
22 Jul -2.2 00:48:27 10° WNW 00:51:31 35° N 00:54:37 10° ENE visible
22 Jul -3.5 02:25:05 10° WNW 02:28:22 65° NNE 02:31:39 10° ESE visible
22 Jul -2.8 04:01:51 10° W 04:04:39 26° SW 04:07:27 10° SSE visible
22 Jul -3.8 22:19:11 10° WSW 22:22:27 82° NNW 22:25:46 10° ENE visible
22 Jul -2.2 23:56:08 10° WNW 23:59:14 36° N 00:02:19 10° ENE visible
23 Jul -2.8 01:32:55 10° WNW 01:35:57 47° N 01:35:57 47° N visible
23 Jul -3.8 21:27:04 10° SW 21:30:18 63° SSE 21:33:34 10° ENE visible
23 Jul -2.5 23:03:47 10° W 23:06:56 41° N 23:10:05 10° ENE visible
24 Jul -2.5 00:40:43 10° WNW 00:43:51 39° N 00:44:37 33° NE visible
24 Jul -2.9 22:11:26 10° W 22:14:39 51° NNW 22:17:52 10° ENE visible
24 Jul -2.2 23:48:28 10° WNW 23:51:32 35° N 23:53:42 16° ENE visible
25 Jul -1.7 01:25:02 10° WNW 01:26:19 21° WNW 01:26:19 21° WNW visible
25 Jul -2.2 22:56:08 10° WNW 22:59:12 35° N 23:02:17 10° ENE visible
26 Jul -2.8 00:32:51 10° WNW 00:35:33 46° NNW 00:35:33 46° NNW visible
26 Jul -2.4 22:03:45 10° W 22:06:52 38° N 22:09:59 10° ENE visible
26 Jul -2.6 23:40:37 10° WNW 23:43:46 42° N 23:44:52 30° ENE visible
27 Jul -1.0 01:17:08 10° WNW 01:17:28 12° WNW 01:17:28 12° WNW visible
27 Jul -2.4 22:48:21 10° WNW 22:51:26 36° N 22:54:12 12° ENE visible
28 Jul -2.3 00:24:53 10° WNW 00:26:50 33° WNW 00:26:50 33° WNW visible
28 Jul -2.3 21:56:00 10° WNW 21:59:03 35° N 22:02:07 10° ENE visible
28 Jul -3.4 23:32:39 10° WNW 23:35:55 59° NNE 23:36:12 56° NE visible
29 Jul -2.9 22:40:25 10° WNW 22:43:35 45° NNE 22:45:36 19° E visible
30 Jul -1.7 00:16:56 10° WNW 00:18:14 21° W 00:18:14 21° W visible
30 Jul -2.5 21:48:06 10° WNW 21:51:13 38° N 21:54:19 10° ENE visible
30 Jul -3.8 23:24:38 10° WNW 23:27:39 72° W 23:27:39 72° W visible
